This demonstration page uses our WeatherBlox Daily Observations layout. Learn more.

Left ArrowRight Arrow

44.89941, -97.11507

Hourly Observations for April 9, 2016

Temp ( °F °C ) Dew Point ( °F °C ) Humidity (%) Winds ( mph kmh ) Pressure ( in mb ) Visibility ( mi km ) Precip ( " mm )
12:53 am 00:53 Clear 21 -6.1 7 -13.9 54 54 E 3 6 30.26 1025 10 16 0.00 0.00
1:53 am 01:53 Clear 20 -6.7 7 -13.9 57 57 ESE 3 6 30.24 1024 10 16 0.00 0.00
2:53 am 02:53 Clear 19 -7.2 8 -13.3 62 62 ESE 3 6 30.22 1023 10 16 0.00 0.00
3:53 am 03:53 Clear 19 -7.2 8 -13.3 62 62 ESE 6 9 30.19 1022 10 16 0.00 0.00
4:53 am 04:53 Clear 20 -6.7 9 -12.8 62 62 ESE 7 11 30.16 1022 10 16 0.00 0.00
5:53 am 05:53 Clear 21 -6.1 10 -12.2 62 62 SSE 10 17 30.16 1021 10 16 0.00 0.00
6:53 am 06:53 Clear 20 -6.7 10 -12.2 65 65 S 10 17 30.16 1022 10 16 0.00 0.00
7:53 am 07:53 Sunny 22 -5.6 10 -12.2 60 60 SSE 14 22 30.15 1021 10 16 0.00 0.00
8:53 am 08:53 Sunny 26 -3.3 10 -12.2 51 51 S 21 33 30.14 1021 10 16 0.00 0.00
9:53 am 09:53 Sunny 30 -1.1 10 -12.2 43 43 S 25 41 30.10 1019 10 16 0.00 0.00
10:53 am 10:53 Sunny 34 1.1 10 -12.2 37 37 S 24 39 30.05 1018 10 16 0.00 0.00
11:53 am 11:53 Sunny 37 2.8 10 -12.2 33 33 S 24 39 29.99 1016 10 16 0.00 0.00
12:53 pm 12:53 Sunny 41 5 11 -11.7 29 29 S 25 41 29.91 1013 10 16 0.00 0.00
1:53 pm 13:53 Sunny 45 7.2 10 -12.2 24 24 SSE 31 50 29.85 1011 10 16 0.00 0.00
2:53 pm 14:53 Sunny 48 8.9 9 -12.8 20 20 SSE 26 43 29.79 1009 10 16 0.00 0.00
3:53 pm 15:53 Sunny 50 10 10 -12.2 20 20 S 26 43 29.75 1008 10 16 0.00 0.00
4:53 pm 16:53 Sunny 50 10 13 -10.6 22 22 S 28 44 29.72 1006 10 16 0.00 0.00
5:53 pm 17:53 Sunny 50 10 15 -9.4 25 25 S 26 43 29.67 1005 10 16 0.00 0.00
6:53 pm 18:53 Sunny 51 10.6 17 -8.3 26 26 S 20 31 29.65 1004 10 16 0.00 0.00
7:53 pm 19:53 Sunny 50 10 18 -7.8 28 28 S 17 28 29.64 1004 10 16 0.00 0.00
8:53 pm 20:53 Clear 48 8.9 19 -7.2 32 32 SSE 18 30 29.60 1002 10 16 0.00 0.00
9:53 pm 21:53 Clear 47 8.3 19 -7.2 33 33 SSE 18 30 29.57 1001 10 16 0.00 0.00
10:53 pm 22:53 Clear 46 7.8 19 -7.2 34 34 S 18 30 29.54 1000 10 16 0.00 0.00
11:53 pm 23:53 Clear 46 7.8 21 -6.1 37 37 S 15 24 29.51 999 10 16 0.00 0.00

Powered by AerisWeather